Flag for Hong Kong Weather past 2 weeks in Kowloon, Hong Kong

Now
63 °F

Clear.


Feels Like: 63 °F
Forecast: 57 / 68 °F
Wind: 14 mph from Northwest

Location: National Airport

Current Time: Jan 30, 2015 at 11:50:03 PM

Latest Report: Jan 30, 2015 at 11:00 PM


Visibility: 5 mi

Pressure: 30.24 "Hg

Humidity: 68%

Dew point: 52 °F

Location of KowloonLocation

Historic Weather in Kowloon — Graph

°F

Kowloon temperature yesterday

Maximum temperature yesterday: 72 °F (at 3:30 PM)
Minimum temperature yesterday: 61 °F (at 4:00 AM)
Average temperature yesterday: 66 °F

Past Weeks' High & Low Weather Summary

 TemperatureHumidityPressure
High73 °F (Jan 22, 1:00 PM)88% (Jan 26, 4:00 AM)30.33 "Hg (Jan 26, 4:00 AM)
Low54 °F (Jan 19, 6:30 AM)22% (Jan 22, 1:30 PM)29.98 "Hg (Jan 27, 3:00 PM)
Average65 °F61%30.13 "Hg
* Reported Jan 15 10:00 PM — Jan 30 10:30 PM, Kowloon, Weather by CustomWeather, © 2014

Note: Actual official high and low records may vary slightly from our data, if they occured in-between our weather recording intervals... More about our weather records

Advertising

Kowloon weather history for previous 24 hours

 ConditionsComfort  
Time TempWeatherWind HumidityBarometerVisibility
10:30 PM
Jan 30
63 °FClear.15 mph68%30.24 "Hg5 mi
10:00 PM63 °FClear.15 mph68%30.21 "Hg5 mi
9:30 PM63 °FClear.15 mph68%30.21 "Hg5 mi
9:00 PM64 °FClear.14 mph64%30.21 "Hg5 mi
8:30 PM64 °FClear.7 mph60%30.21 "Hg5 mi
8:00 PM64 °FClear.10 mph64%30.21 "Hg4 mi
7:30 PM64 °FClear.12 mph64%30.18 "Hg4 mi
7:00 PM64 °FClear.12 mph64%30.18 "Hg4 mi
6:30 PM64 °FClear.8 mph64%30.18 "Hg4 mi
6:00 PM64 °FPassing clouds.10 mph64%30.18 "Hg3 mi
5:30 PM66 °FPassing clouds.10 mph56%30.15 "Hg3 mi
5:00 PM66 °FPassing clouds.9 mph56%30.15 "Hg3 mi
4:30 PM66 °FScattered clouds.10 mph56%30.15 "Hg3 mi
4:00 PM66 °FScattered clouds.12 mph60%30.15 "Hg3 mi
3:30 PM66 °FScattered clouds.8 mph60%30.15 "Hg3 mi
3:00 PM66 °FScattered clouds.9 mph60%30.15 "Hg3 mi
2:30 PM66 °FScattered clouds.2 mph60%30.15 "Hg4 mi
2:00 PM64 °FScattered clouds.3 mph64%30.15 "Hg4 mi
1:30 PM64 °FScattered clouds.5 mph64%30.18 "Hg4 mi
1:00 PM64 °FScattered clouds.3 mph64%30.18 "Hg4 mi
12:30 PM64 °FScattered clouds.5 mph64%30.21 "Hg4 mi
12:00 PM63 °FScattered clouds.5 mph68%30.21 "Hg4 mi
11:30 AM63 °FScattered clouds.5 mph68%30.24 "Hg4 mi
11:00 AM63 °FScattered clouds.8 mph68%30.24 "Hg4 mi
10:30 AM61 °FScattered clouds.8 mph72%30.24 "Hg4 mi
10:00 AM61 °FScattered clouds.9 mph72%30.24 "Hg4 mi
9:30 AM61 °FScattered clouds.9 mph72%30.21 "Hg4 mi
9:00 AM61 °FScattered clouds.8 mph72%30.21 "Hg4 mi
8:30 AM61 °FScattered clouds.12 mph72%30.18 "Hg4 mi
7:30 AM61 °FScattered clouds.12 mph77%30.18 "Hg4 mi
7:00 AM61 °FPassing clouds.10 mph77%30.15 "Hg4 mi
6:30 AM61 °FPassing clouds.7 mph83%30.15 "Hg6 mi
6:00 AM61 °FPassing clouds.8 mph83%30.12 "Hg6 mi
5:30 AM61 °FClear.8 mph83%30.12 "Hg6 mi
5:00 AM61 °FClear.9 mph83%30.09 "Hg6 mi
4:30 AM61 °FClear.9 mph83%30.09 "Hg6 mi
4:00 AM61 °FClear.12 mph83%30.09 "Hg6 mi
3:30 AM63 °FClear.7 mph77%30.09 "Hg6 mi
3:00 AM63 °FClear.8 mph77%30.07 "Hg6 mi
2:30 AM63 °FClear.7 mph77%30.07 "Hg6 mi
2:00 AM63 °FClear.9 mph77%30.09 "Hg10 mi
1:30 AM63 °FClear.8 mph83%30.09 "Hg6 mi
1:00 AM64 °FClear.8 mph73%30.09 "Hg6 mi
12:30 AM64 °FClear.9 mph73%30.09 "Hg6 mi
12:00 AM63 °FClear.7 mph77%30.09 "Hg6 mi
11:30 PM
Jan 29
64 °FClear.6 mph73%30.09 "Hg6 mi
11:00 PM64 °FClear.8 mph73%30.09 "Hg5 mi
Weather by CustomWeather, © 2014

See weather overviewHow to use our weather pages